www.pogodaiklimat.ru

Погода и климат >> Архив погоды >> Россия >> Якутия >> Белая Гора


ПОГОДА в Белой Горе

  • Прогноз погоды в Белой Горе
  • Монитор погоды в Белой Горе

АРХИВ ПОГОДЫ в Белой Горе

Время (UTC), дата Ветер
(напр.,м/с)
 
Видим.   Явления Облачность Т
(С)
Тd
(С)
f
(%)
Тe
(С)
Тes
(С)
Комфортность P
(гПа)
Po
(гПа)
Тmin
(С)
Tmax
(С)
R
(мм)
R24
(мм)
S
(см)
06 15.04 СВ 1 50 км 4/0
[As trans]
+0.2 -8.7 51 -1 +2 1005.3 1000.1
09 15.04 СВ 1 50 км 4/0
[As trans]
-2.2 -9.4 58 -4 -4 1005.3 1000.1 +0.3
12 15.04 ЮЗ 2 20 км 6/0
[As op]
-6.5 -10.5 73 -11 -11 1005.6 1000.3
15 15.04 Ю 2 20 км 6/0
[As op]
-14.0 -15.1 91 -19 -19 1005.3 999.8
18 15.04 Ю 2 50 км 4/0
[As op]
-15.8 -47.0 5 -21 -21 1006.3 1000.1
21 15.04 Ю 2 50 км 3/0
[As op]
-10.4 -12.1 87 -15 -14 1006.5 1001.1 -15.9 16
00 16.04 З 3 50 км ясно -4.5 -8.4 74 -10 -5 1007.6 1002.3
03 16.04 З 3 50 км ясно -2.4 -7.9 66 -7 -2 1008.3 1003.1
06 16.04 З 2 50 км ясно -1.2 -8.5 58 -4 -1 1009.4 1004.2
09 16.04 С 1 50 км ясно -2.0 -8.7 60 -4 -3 1010.9 1005.7 -1.1
12 16.04 штиль 0 20 км ясно -9.1 -11.5 83 -10 -10 1012.6 1007.2
15 16.04 В 2 20 км ясно -14.4 -15.4 92 -19 -19 1013.6 1008.0
18 16.04 В 1 50 км ясно -15.1 -16.5 89 -18 -18 1014.2 1008.7
21 16.04 В 2 50 км ясно -10.6 -12.3 87 -15 -14 1014.3 1008.9 -15.2 16
00 17.04 В 3 50 км ясно -5.0 -10.8 64 -10 -6 1014.2 1008.9
03 17.04 В 4 50 км 8/0
[As trans]
-2.5 -10.0 56 -8 -6 1012.7 1007.4
06 17.04 В 4 50 км 8/0
[As trans]
-1.0 -8.9 55 -6 -5 1011.7 1006.0
09 17.04 В 3 50 км 6/0
[As trans]
-1.0 -9.4 53 -5 -5 1010.0 1004.8 -0.9
12 17.04 В 3 20 км 6/0
[As trans]
-4.8 -9.5 70 -10 -10 1009.3 1003.7
15 17.04 В 1 20 км 6/0
[As op]
-9.2 -10.7 89 -12 -12 1007.7 1002.3
18 17.04 В 1 50 км 6/0
[As op]
-10.0 -11.4 89 -12 -12 1006.7 1001.3
21 17.04 штиль 0 50 км 8/0
[As op]
-7.5 -10.5 79 -8 -7 1006.1 1000.8 -10.1 16
00 18.04 СВ 1 50 км 10/0
[As op]
-2.5 -8.6 63 -4 -3 1005.2 1000.0
03 18.04 С 5 50 км 10/0
[As op]
-1.8 -7.1 67 -8 -7 1004.5 999.3
06 18.04 С 6 2000 м слаб. снег 10/0
[As op]
-8.2 -10.1 86 -17 -16 1006.1 1000.8
09 18.04 СЗ 5 2000 м слаб. снег 10/0
[As op]
-10.1 -11.4 90 -18 -18 1009.1 1003.7 -1.7 3
12 18.04 СЗ 6 2000 м слаб. снег {метель} 10/0
[As op]
-12.0 -13.8 86 -21 -21 1013.1 1007.6
15 18.04 СЗ 7 2000 м слаб. снег {метель} 10/0
[As op]
-12.7 -14.7 85 -22 -22 1016.9 1011.4
18 18.04 З 3
{10}
н/о н/о -13.8 -18.4 68 -20 -20 1020.4 1014.5
21 18.04 З 4 50 км 3/0
[As op]
-13.1 -19.2 60 -20 -20 1022.2 1016.7 -14.4 1 18
00 19.04 ЮЗ 2 50 км ясно -9.8 -18.5 49 -14 -9 1024.3 1018.8
03 19.04 З 1 50 км 5/0
[Ci fib]
-6.7 -18.8 38 -8 -1 1024.7 1019.3
06 19.04 СЗ 1 50 км ясно -5.5 -17.8 37 -7 -3 1024.3 1018.9
09 19.04 штиль 0 50 км ясно -6.8 -18.3 39 -7 -6 1024.7 1019.3 -5.4
12 19.04 штиль 0 20 км ясно -16.2 -20.7 68 -16 -16 1024.8 1019.2
15 19.04 штиль 0 20 км ясно -21.6 -23.3 86 -22 -22 1024.5 1012.8
18 19.04 штиль 0 50 км ясно -25.0 -27.8 77 -25 -25 1024.1 1018.3
21 19.04 штиль 0 50 км ясно -17.5 -21.8 69 -18 -15 1023.8 1018.2 -25.1 18
00 20.04 СВ 1 50 км ясно -6.7 -17.3 43 -8 -2 1023.4 1018.0
03 20.04 СЗ 1 50 км ясно -3.5 -15.8 38 -5 +3 1023.3 1018.0
06 20.04 СЗ 1 50 км ясно -2.7 -15.7 36 -4 0 1022.7 1017.4
09 20.04 В 2 50 км ясно -3.8 -17.1 35 -7 -7 1023.4 1018.1 -2.5
12 20.04 СВ 1 20 км ясно -13.5 -19.6 60 -16 -16 1024.0 1018.5
15 20.04 СВ 1 20 км ясно -17.0 -20.8 72 -20 -20 1023.4 1017.8
18 20.04 СВ 1 50 км ясно -18.2 -20.8 80 -21 -21 1023.5 1017.5
21 20.04 В 1 50 км ясно -11.5 -17.7 60 -14 -12 1022.0 1016.5 -18.1 18
00 21.04 В 3 50 км 5/0
[As op]
-3.0 -14.7 40 -7 -4 1019.9 1014.6
03 21.04 ЮВ 4 50 км ясно -0.8 -11.4 44 -6 -1 1018.0 1012.4
06 21.04 ЮВ 4 50 км ясно +0.4 -8.0 53 -4 -2 1016.3 1011.1
09 21.04 В 3 50 км 8/0 1000 м
[Cs]
-0.3 -7.7 57 -4 -4 1015.8 1010.6 +0.5
12 21.04 В 3 20 км 6/0
[Cs]
-4.4 -9.2 69 -10 -10 1015.3 1010.0
15 21.04 В 2 20 км 6/6 1000 м
[Sc]
-7.6 -11.1 76 -12 -12 1014.2 1008.8
18 21.04 В 2 50 км 4/0
[As op]
-18.0 -21.5 74 -23 -23 1013.4 1007.8
21 21.04 В 3 50 км 3/0
[As op]
-7.8 -13.4 64 -13 -12 1012.4 1007.0 -10.1 17
00 22.04 В 3 50 км 10/0
[As op Cs]
-3.2 -10.5 57 -8 -6 1011.5 1006.2

 

Местоположение метеостанции Белая Гора (Якутия, Россия): широта 68.55 долгота 146.20 высота над уровнем моря 41 м.

В архиве по умолчанию представлена погода в Белой Горе за последнюю неделю. Архивные данные за месяц целиком и за предыдущие месяцы, начиная с января 2011 года, Вы можете получить, выбрав интересующий диапазон дат из раскрывающегося списка и нажав кнопку "Ввод!".


*Определитесь, кто Вы:
робот инопланетянин человек

Внимание! Время в таблицах - всемирное. Для получения местного времени необходимо прибавить поправку, которая равна 11 ч.

Смотрите также архив погоды в соседних городах и на ближайших метеорологических станциях:

Погода в Чокурдахе (Якутия, Россия) (238 км)
Погода в Усть-Моме (Якутия, Россия) (266 км)
Погода в Депутатском (Якутия, Россия) (272 км)
Погода в Среднеколымске (Якутия, Россия) (335 км)
Погода в Андрюшкино (Якутия, Россия) (340 км)
Погода в Зырянке (Якутия, Россия) (373 км)
Погода в Усть-Куйге (Якутия, Россия) (447 км)
Погода в Усть-Чарках (Якутия, Россия) (449 км)
Погода в Юбилейной (Якутия, Россия) (458 км)
Погода в Усть-Нере (Якутия, Россия) (468 км)

Пояснения к столбцам:

Ветер - указаны скорость ветра в м/с - средняя за 10 мин, порывы в срок и между сроками (в фигурных скобках) и направление, откуда дует ветер: С - северный, СВ - северо-восточный, В - восточный, ЮВ - юго-восточный, Ю - южный, ЮЗ - юго-западный, З - западный, СЗ - северо-западный.
Видимость - горизонтальная дальность видимости в метрах или километрах. При видимости от 1 до 10 км при отсутствии осадков обычно наблюдается дымка, при ухудшении видимости до 1 км и менее - туман. В сухую погоду видимость может ухудшаться дымом, пылью или мглою.
Явления - указаны атмосферные явления, наблюдавшиеся в срок или в последний час перед сроком; фигурными скобками обозначены явления, наблюдавшиеся между сроками (за 1-3 часа до срока); квадратными скобками обозначены град или гололедные отложения с указанием их диаметра в мм.
Облачность - указаны через наклонную черту общая и нижняя облачность в баллах и высота нижней границы облаков в метрах; квадратными скобками обозначены формы облаков: Ci - перистые, Cs - перисто-слоистые, Cc - перисто-кучевые, Ac - высококучевые, As - высокослоистые, Sc - слоисто-кучевые, Ns - слоисто-дождевые, Cu - кучевые, Cb - кучево-дождевые. Подробнее классификацию облаков см. в Атласе облаков (PDF).
T - Температура воздуха - температура, измеренная на высоте 2 м над землей.
Td - Температура точки росы - температура, при понижении до которой содержащийся в воздухе водяной пар достигнет насыщения.
f - Относительная влажность воздуха - влажноcть воздуха, измеренная на высоте 2 м над землей.
Te - Эффективная температура - температура, которую ощущает одетый по сезону человек в тени. Характеристика душности погоды. При расчете учитывается влияние влажности воздуха и скорости ветра на теплоощущения человека.
Tes - Эффективная температура на солнце - температура, которую ощущает человек, с поправкой на солнечный нагрев. Характеристика знойности погоды. Зависит от высоты солнца над горизонтом, облачности и скорости ветра. Ночью, в пасмурную погоду, а также при ветре 12 м/с и более поправка равна нулю.
P - Атмосферное давление - приведенное к уровню моря атмосферное давление.
Po - Атмосферное давление - измеренное на уровне метеостанции атмосферное давление.
Tmin - Минимальная температура - минимум температуры воздуха на высоте 2 м над землей.
Tmax - Максимальная температура - максимум температуры воздуха на высоте 2 м над землей.
R - Количество осадков - Количество выпавших осадков за период времени, мм. При наведении курсора мыши на число - период времени, за который выпало указанное количество осадков.
R24 - Количество осадков - Количество выпавших осадков за 24 часа, мм.
S - Снежный покров - Высота снежного покрова, см. При наведении курсора мыши на число - состояние снежного покрова и степень покрытия местности в баллах.